Time,TemperatureF,DewpointF,PressureIn,WindDirection,WindDirectionDegrees,WindSpeedMPH,WindSpeedGustMPH,Humidity,HourlyPrecipIn,Conditions,Clouds,dailyrainin,SoftwareType,DateUTC
2013-02-04 11:33:00,64.0,52.0,30.10,NE,56,16.0,20.0,64,0.00,,,0.00,,2013-02-04 16:33:00,
2013-02-04 11:43:00,64.0,52.0,30.10,NE,56,16.0,20.0,64,0.00,,,0.00,,2013-02-04 16:43:00,
2013-02-04 11:52:00,65.0,53.0,30.09,ENE,57,14.0,16.0,66,0.00,,,0.00,,2013-02-04 16:52:00,
2013-02-04 12:02:00,65.0,53.0,30.09,ENE,64,12.0,16.0,66,0.00,,,0.00,,2013-02-04 17:02:00,
2013-02-04 12:11:00,65.0,53.0,30.09,ENE,64,12.0,16.0,66,0.00,,,0.00,,2013-02-04 17:11:00,
2013-02-04 12:21:00,66.0,55.0,30.08,NE,56,12.0,15.0,67,0.00,,,0.00,,2013-02-04 17:21:00,
2013-02-04 12:32:00,66.0,54.0,30.08,ENE,57,11.0,14.0,66,0.00,,,0.00,,2013-02-04 17:32:00,
2013-02-04 12:42:00,66.0,54.0,30.07,ENE,76,10.0,14.0,66,0.00,,,0.00,,2013-02-04 17:42:00,
2013-02-04 12:52:00,66.0,54.0,30.07,ENE,76,10.0,14.0,66,0.00,,,0.00,,2013-02-04 17:52:00,
2013-02-04 13:03:00,66.0,53.0,30.06,NE,49,10.0,14.0,63,0.00,,,0.00,,2013-02-04 18:03:00,
2013-02-04 13:11:00,66.0,53.0,30.06,NE,49,10.0,14.0,63,0.00,,,0.00,,2013-02-04 18:11:00,
2013-02-04 13:22:00,67.0,53.0,30.06,ENE,57,10.0,13.0,61,0.00,,,0.00,,2013-02-04 18:22:00,
2013-02-04 13:32:00,67.0,54.0,30.05,NE,53,11.0,14.0,63,0.00,,,0.00,,2013-02-04 18:32:00,
2013-02-04 13:42:00,67.0,54.0,30.05,NE,53,11.0,14.0,63,0.00,,,0.00,,2013-02-04 18:42:00,
2013-02-04 13:52:00,68.0,55.0,30.05,NE,46,8.0,12.0,64,0.00,,,0.00,,2013-02-04 18:52:00,
2013-02-04 14:02:00,68.0,55.0,30.04,ENE,57,10.0,13.0,63,0.00,,,0.00,,2013-02-04 19:02:00,
2013-02-04 14:11:00,68.0,55.0,30.04,ENE,57,10.0,13.0,63,0.00,,,0.00,,2013-02-04 19:11:00,
2013-02-04 14:22:00,68.0,54.0,30.03,East,85,8.0,13.0,62,0.00,,,0.00,,2013-02-04 19:22:00,
2013-02-04 14:32:00,68.0,54.0,30.03,ENE,67,11.0,14.0,60,0.00,,,0.00,,2013-02-04 19:32:00,
2013-02-04 14:42:00,68.0,54.0,30.03,ENE,67,11.0,14.0,60,0.00,,,0.00,,2013-02-04 19:42:00,
2013-02-04 14:52:00,69.0,55.0,30.02,NE,56,9.0,12.0,62,0.00,,,0.00,,2013-02-04 19:52:00,
2013-02-04 15:02:00,69.0,55.0,30.02,NE,38,9.0,12.0,61,0.00,,,0.00,,2013-02-04 20:02:00,
2013-02-04 15:12:00,69.0,55.0,30.02,NE,38,9.0,12.0,61,0.00,,,0.00,,2013-02-04 20:12:00,
2013-02-04 15:22:00,69.0,57.0,30.01,ENE,78,9.0,12.0,65,0.00,,,0.00,,2013-02-04 20:22:00,
2013-02-04 15:32:00,69.0,57.0,30.01,ESE,111,8.0,11.0,65,0.00,,,0.00,,2013-02-04 20:32:00,
2013-02-04 15:42:00,69.0,57.0,30.01,ESE,111,8.0,11.0,65,0.00,,,0.00,,2013-02-04 20:42:00,
2013-02-04 15:52:00,70.0,59.0,30.01,East,98,16.0,22.0,69,0.00,,,0.00,,2013-02-04 20:52:00,
2013-02-04 16:02:00,70.0,59.0,30.01,ESE,107,13.0,20.0,68,0.00,,,0.00,,2013-02-04 21:02:00,
2013-02-04 16:11:00,70.0,59.0,30.01,ESE,107,13.0,20.0,68,0.00,,,0.00,,2013-02-04 21:11:00,
2013-02-04 16:22:00,71.0,58.0,30.01,SE,132,14.0,19.0,64,0.00,,,0.00,,2013-02-04 21:22:00,
2013-02-04 16:32:00,71.0,56.0,30.01,SE,131,13.0,19.0,60,0.00,,,0.00,,2013-02-04 21:32:00,
2013-02-04 16:42:00,71.0,56.0,30.01,SE,131,13.0,19.0,60,0.00,,,0.00,,2013-02-04 21:42:00,
2013-02-04 16:52:00,71.0,56.0,30.01,SE,131,12.0,18.0,60,0.00,,,0.00,,2013-02-04 21:52:00,
2013-02-04 17:03:00,71.0,57.0,30.01,SE,130,14.0,18.0,61,0.00,,,0.00,,2013-02-04 22:03:00,
2013-02-04 17:12:00,71.0,57.0,30.01,SE,130,14.0,18.0,61,0.00,,,0.00,,2013-02-04 22:12:00,
2013-02-04 17:21:00,71.0,57.0,30.01,ESE,111,10.0,14.0,62,0.00,,,0.00,,2013-02-04 22:21:00,
2013-02-04 17:32:00,71.0,57.0,30.01,SE,130,12.0,19.0,62,0.00,,,0.00,,2013-02-04 22:32:00,
2013-02-04 17:42:00,71.0,57.0,30.01,SE,130,12.0,19.0,62,0.00,,,0.00,,2013-02-04 22:42:00,
2013-02-04 17:52:00,71.0,59.0,30.01,SE,130,15.0,18.0,65,0.00,,,0.00,,2013-02-04 22:52:00,
2013-02-04 18:01:00,71.0,59.0,30.01,SE,127,15.0,18.0,65,0.00,,,0.00,,2013-02-04 23:01:00,
2013-02-04 18:11:00,71.0,59.0,30.01,SE,127,15.0,18.0,65,0.00,,,0.00,,2013-02-04 23:11:00,
2013-02-04 18:21:00,70.0,58.0,30.02,SE,132,15.0,20.0,66,0.00,,,0.00,,2013-02-04 23:21:00,
2013-02-04 18:32:00,70.0,58.0,30.01,ESE,116,13.0,20.0,65,0.00,,,0.00,,2013-02-04 23:32:00,
2013-02-04 18:42:00,70.0,58.0,30.01,ESE,116,13.0,20.0,65,0.00,,,0.00,,2013-02-04 23:42:00,
2013-02-04 18:52:00,70.0,57.0,30.02,SE,132,12.0,19.0,64,0.00,,,0.00,,2013-02-04 23:52:00,
2013-02-04 19:02:00,70.0,57.0,30.02,SE,127,14.0,15.0,63,0.00,,,0.00,,2013-02-05 00:02:00,
2013-02-04 19:11:00,70.0,57.0,30.02,SE,127,14.0,15.0,63,0.00,,,0.00,,2013-02-05 00:11:00,
2013-02-04 19:22:00,70.0,57.0,30.02,SE,125,11.0,14.0,63,0.00,,,0.00,,2013-02-05 00:22:00,
2013-02-04 19:32:00,70.0,58.0,30.02,ESE,121,10.0,15.0,65,0.00,,,0.00,,2013-02-05 00:32:00,
2013-02-04 19:42:00,70.0,58.0,30.02,ESE,121,10.0,15.0,65,0.00,,,0.00,,2013-02-05 00:42:00,
2013-02-04 19:52:00,70.0,58.0,30.02,ESE,123,13.0,15.0,65,0.00,,,0.00,,2013-02-05 00:52:00,
2013-02-04 20:02:00,70.0,58.0,30.03,East,93,11.0,14.0,65,0.00,,,0.00,,2013-02-05 01:02:00,
2013-02-04 20:12:00,70.0,58.0,30.03,East,93,11.0,14.0,65,0.00,,,0.00,,2013-02-05 01:12:00,
2013-02-04 20:22:00,70.0,58.0,30.04,SE,131,11.0,14.0,66,0.00,,,0.00,,2013-02-05 01:22:00,
2013-02-04 20:32:00,70.0,57.0,30.04,ESE,120,11.0,15.0,64,0.00,,,0.00,,2013-02-05 01:32:00,
2013-02-04 20:42:00,70.0,57.0,30.04,ESE,120,11.0,15.0,64,0.00,,,0.00,,2013-02-05 01:42:00,
2013-02-04 20:52:00,70.0,58.0,30.04,ESE,103,11.0,15.0,66,0.00,,,0.00,,2013-02-05 01:52:00,
2013-02-04 21:01:00,70.0,58.0,30.05,East,99,10.0,15.0,66,0.00,,,0.00,,2013-02-05 02:01:00,
2013-02-04 21:11:00,70.0,58.0,30.05,East,99,10.0,15.0,66,0.00,,,0.00,,2013-02-05 02:11:00,
2013-02-04 21:22:00,70.0,58.0,30.04,ESE,111,12.0,13.0,65,0.00,,,0.00,,2013-02-05 02:22:00,
2013-02-04 21:32:00,70.0,57.0,30.04,East,100,14.0,15.0,64,0.00,,,0.00,,2013-02-05 02:32:00,
2013-02-04 21:42:00,70.0,57.0,30.04,East,100,14.0,15.0,64,0.00,,,0.00,,2013-02-05 02:42:00,
2013-02-04 21:52:00,70.0,58.0,30.04,East,100,15.0,18.0,65,0.00,,,0.00,,2013-02-05 02:52:00,
2013-02-04 22:02:00,70.0,58.0,30.04,ESE,107,13.0,16.0,66,0.00,,,0.00,,2013-02-05 03:02:00,
2013-02-04 22:11:00,70.0,58.0,30.04,ESE,107,13.0,16.0,66,0.00,,,0.00,,2013-02-05 03:11:00,
2013-02-04 22:21:00,70.0,58.0,30.05,ESE,105,15.0,18.0,66,0.00,,,0.00,,2013-02-05 03:21:00,
2013-02-04 22:32:00,70.0,58.0,30.05,ESE,109,10.0,15.0,66,0.00,,,0.00,,2013-02-05 03:32:00,
2013-02-04 22:42:00,70.0,58.0,30.05,ESE,109,10.0,15.0,66,0.00,,,0.00,,2013-02-05 03:42:00,
2013-02-04 22:52:00,70.0,59.0,30.05,East,96,9.0,13.0,67,0.00,,,0.00,,2013-02-05 03:52:00,
2013-02-04 23:01:00,70.0,60.0,30.05,East,93,10.0,14.0,71,0.00,,,0.00,,2013-02-05 04:01:00,
2013-02-04 23:11:00,70.0,60.0,30.05,East,93,10.0,14.0,71,0.00,,,0.00,,2013-02-05 04:11:00,
2013-02-04 23:22:00,70.0,59.0,30.05,ESE,102,12.0,14.0,67,0.00,,,0.00,,2013-02-05 04:22:00,
2013-02-04 23:32:00,70.0,60.0,30.05,East,98,10.0,13.0,71,0.00,,,0.00,,2013-02-05 04:32:00,
2013-02-04 23:42:00,70.0,60.0,30.05,East,98,10.0,13.0,71,0.00,,,0.00,,2013-02-05 04:42:00,
2013-02-04 23:52:00,70.0,60.0,30.05,ESE,107,11.0,14.0,70,0.00,,,0.00,,2013-02-05 04:52:00,